Other Public Products
Issued by NWS Grand Forks, ND

Home | Current Version | Previous Version | Text Only | Print | Product List | Glossary Off
Versions: 1 2 3 4 5 6 7 8 9 10 11 12 13 14 15 16 17 18 19 20 21 22 23 24 25 26 27 28 29 30 31 32 33 34 35 36 37 38 39 40 41 42 43 44 45 46 47 48 49 50

000
FPUS83 KFGF 242010
OPUFGF
PRAIRIE TO PINES WEATHER ROUNDUP
NATIONAL WEATHER SERVICE EASTERN NORTH DAKOTA/GRAND FORKS ND
300 PM CDT FRI MAR 24 2017

 **SATELLITE DATA USED TO AUGMENT SKY COVER AT AUTOMATED STATIONS**
 *****  WEATHER ACROSS EASTERN NORTH DAKOTA  *****

CITY           SKY/WX    TMP DP  RH WIND       PRES   REMARKS
GRAND FORKS    CLOUDY    36  28  73 N14       30.22S
GRAND FORKS AF CLOUDY    34  28  76 N13       30.23R
GRAND CITY NWS NOT AVBL
BUXTON         NOT AVBL
DEVILS LAKE    CLOUDY    32  25  75 N6        30.22F
FARGO          CLOUDY    38  32  79 N15       30.18F
WAHPETON ARPT  MOCLDY    39  32  75 N16       30.15S
$$

 *****  WEATHER ACROSS CENTRAL AND WESTERN NORTH DAKOTA  *****

CITY           SKY/WX    TMP DP  RH WIND       PRES   REMARKS
JAMESTOWN      CLOUDY    39  31  72 N9        30.18S
BISMARCK       FAIR      45  32  60 NE6       30.17F
MINOT          FAIR      40  29  64 E15       30.18F
MINOT AFB      FAIR      36  28  74 SE13      30.18F
GARRISON         N/A     40  31  70 E10       30.15F
WILLISTON      FAIR      55  32  41 SE10      30.08F
DICKINSON      FAIR      55  33  43 SE8       30.08F
HETTINGER      FAIR      55  38  52 SE7       30.11F
$$

 *****  OTHER OBSERVATIONS NORTHEAST NORTH DAKOTA  *****

CITY           SKY/WX    TMP DP  RH WIND       PRES   REMARKS
WALHALLA       NOT AVBL
LANGDON        CLOUDY    32  27  80 NE8       30.22F WCI  25
CAVALIER         N/A     34  27  75 N10       30.24F
GRAFTON        CLOUDY    34  30  86 N12       30.26R
CANDO          NOT AVBL
FORT TOTTEN      N/A     36  28  73 N5        29.95S
ROLLA          CLOUDY    30  27  86 NE7       30.21F WCI  23
RUGBY            N/A     32  27  80 E7        30.21F
 ***** THE ABOVE OBSERVATIONS ARE NON NWS ARE NOT QUALITY
        CONTROLLED AND MAY MIS-REPORT RAIN FOR SNOW...
$$

 *****  OTHER OBSERVATIONS SOUTHEAST NORTH DAKOTA *****

CITY           SKY/WX    TMP DP  RH WIND       PRES   REMARKS
COOPERSTOWN    CLOUDY    34  30  86 N14       30.20S WCI  24
VALLEY CITY    CLOUDY    37  34  87 NE14      30.20R
OAKES          NOT AVBL
GWINNER        CLEAR     45  34  65 MISG      30.15F
SHEYENNE NWR     N/A     41  30  65 N12       29.95S
BUFFALO        NOT AVBL
WYNDMERE       NOT AVBL
 ***** THE ABOVE OBSERVATIONS ARE NON NWS ARE NOT QUALITY
       CONTROLLED AND MAY MIS-REPORT RAIN FOR SNOW...
$$

  *****  WEATHER ACROSS NORTHERN MINNESOTA  *****

CITY           SKY/WX    TMP DP  RH WIND       PRES   REMARKS
FLAG ISLAND    CLOUDY    34  25  69 N8        30.20R
WARROAD        CLOUDY    36  27  69 NE6       30.21S
ROSEAU         PTSUNNY   36  28  75 N6        30.20S
HALLOCK        CLOUDY    36  28  75 N6        30.24R
THF RVR FALLS  CLOUDY   N/A N/A N/A N13       30.19F
HALSTAD          N/A     37  30  78 N12         N/A
FOSSTON        CLOUDY    37  30  75 N3        30.17S
BAUDETTE       CLOUDY    39  25  57 N12       30.17R
WASKISH        CLOUDY    39  30  70 W6        30.15S
CROOKSTON      CLOUDY    36  30  80 N12       30.21S
$$
  *****  WEATHER ACROSS CENTRAL AND WEST MINNESOTA  *****

CITY           SKY/WX    TMP DP  RH WIND       PRES   REMARKS
BEMIDJI        CLOUDY    38  30  71 N5        30.14F
PARK RAPIDS    PTSUNNY   41  29  62 N13       30.11F
WADENA         PTSUNNY   43  34  70 NE10      30.11R
DETROIT LAKES  FAIR      41  32  70 N12G17    30.14S
MOORHEAD       CLOUDY    37  32  81 N15       30.18S
FERGUS FALLS   FAIR      43  32  65 N12       30.16R
ELBOW LAKE     FAIR      43  34  69 N12       30.12S HAZE
MORRIS MN      PTSUNNY   43  36  75 N15       30.11S
STAPLES        PTSUNNY   43  32  65 NE12      30.11R
WHEATON        CLOUDY    43  34  70 N14G20    30.16R
$$
  *****  WEATHER ELSEWHERE ACROSS MINNESOTA  *****

CITY           SKY/WX    TMP DP  RH WIND       PRES   REMARKS
DULUTH         CLOUDY    38  34  85 N7        30.10R
INTRNTL FALLS  CLOUDY    39  26  59 NE7       30.16R
ELY            CLOUDY    36  32  87 NE3       30.13S
CLOQUET        CLOUDY    37  32  81 NE12      30.09F
BRAINERD       CLOUDY    40  31  70 NE13      30.12R
HIBBING        CLOUDY    36  33  89 N8        30.12S
ALEXANDRIA     CLOUDY    42  34  73 NE12      30.12R
SAINT CLOUD    CLOUDY    40  34  79 N7        30.12R
MINNEAPOLIS    CLOUDY    45  36  70 N12G23    30.08R
$$

  *****  WEATHER ACROSS SOUTH DAKOTA  *****

CITY           SKY/WX    TMP DP  RH WIND       PRES   REMARKS
SIOUX FALLS    CLOUDY    42  37  82 N16       30.07F
BROOKINGS      CLOUDY    37  35  92 N14       30.10F FOG
WATERTOWN      CLOUDY    37  33  85 NE15      30.12R
HURON          FAIR      47  36  65 NE9       30.13R
SISSETON         N/A     43  36  76 N17       30.13S
ABERDEEN       FAIR      43  30  60 N13G21    30.16S
MITCHELL       CLOUDY    47  38  71 N14       30.12R
PIERRE         FAIR      58  33  39 N9        30.10S
MOBRIDGE       FAIR      56  31  38 VRB7      30.10F
RAPID CITY     FAIR      60  33  36 N9        30.08F
$$

  *****  SOME WEATHER IN NEARBY STATES *****

CITY           SKY/WX    TMP DP  RH WIND       PRES   REMARKS
GLASGOW MT     FAIR      61  30  31 SE15G22   29.96F
GREAT FALLS MT FAIR      62  14  15 S17G24    29.83F
CHEYENNE WY    FAIR      48  21  34 N15G30    30.13R
SCOTTSBLUFF NE FAIR      59  31  34 NE16G26   30.10F
OMAHA NE       CLOUDY    47  42  83 N15       29.93F
DES MOINES IA  LGT RAIN  49  47  93 N6        29.94R FOG
DAVENPORT IA   FAIR      75  41  29 SW16G25   29.89S
CHICAGO IL     PTSUNNY   80  43  26 SW20G28   29.88S
EAU CLAIRE WI  CLOUDY    40  37  89 NE8       30.04R
LA CROSSE WI   CLOUDY    44  41  89 N12       29.99F FOG
$$

  *****  SOME NATIONAL WEATHER *****

CITY           SKY/WX    TMP DP  RH WIND       PRES   REMARKS
LA GUARDIA NY  PTSUNNY   54  28  36 SW15G26   30.17F
RALEIGH NC     FAIR      70  46  42 SW16      30.38F
ATLANTA GA     PTSUNNY   72  48  42 SE12      30.34F
NEW ORLEANS LA CLOUDY    78  66  66 SE20G26   30.17F
OKLAHOMA CITY  FAIR      78  25  14 SW24G36   29.70F
ALBUQUERQUE NM FAIR      64  24  21 N24G30    30.05S
SALT LAKE CITY FAIR      54  33  45 S12       30.18F
LOS ANGELES CA FAIR      65  50  58 W14       30.23F
BOISE ID       LGT RAIN  48  41  76 E26G35    29.99F
SEATTLE WA     PTSUNNY   53  42  66 SW16      29.82R
$$

*** WEATHER ACROSS MANITOBA...SASKATCHEWAN AND ONTARIO ***
                ***ONTARIO***

CITY           SKY/WX    TMP DP  RH WIND       PRES   REMARKS
GERALDTON      MOSUNNY   32  14  47 N10G18    30.15R WCI  24
THUNDER BAY    PTSUNNY   39  30  70 NE9       30.15R
SIOUX LOOKOUT  MOSUNNY   34  18  51 E7        30.19R
TORONTO        CLOUDY    57  46  67 W16       29.90F
BIG TROUT LK   SUNNY     14  -2  48 NW9       30.36S WCI   2
PICKLE LAKE    SUNNY     28  -2  26 NE7       30.24R WCI  21
DRYDEN         CLOUDY    32  23  69 E9        30.18R WCI  24
KENORA         CLOUDY    32  23  69 E8        30.19S WCI  25
$$
                *** MANITOBA***

CITY           SKY/WX    TMP DP  RH WIND       PRES   REMARKS
BRANDON        CLOUDY    30  23  74 E8        30.25R WCI  23
DAUPHIN        CLOUDY    30  23  74 E6        30.25F WCI  24
ISLAND LAKE    SUNNY     16  -2  45 CALM      30.36F
PILOT MOUND      N/A     30  23  74 NE5         N/A
THE PAS        CLOUDY    18   5  57 SE8       30.28F WCI   7
THOMPSON       MOSUNNY   14  -9  34 VRB6      30.35F WCI   5
WINNIPEG       CLOUDY    32  25  74 N7        30.26S
LYNN LAKE      PTSUNNY   16   5  62 SE10      30.24F WCI   3
CHURCHILL      SUNNY      0 -11  60 W9        30.43F WCI -16
GILLAM         MOSUNNY    7  -9  47 NW7       30.43F WCI  -5
$$
                ***SASKATCHEWAN***

CITY           SKY/WX    TMP DP  RH WIND       PRES   REMARKS
ESTEVAN        MOSUNNY   37  32  81 E15G22    30.12F
KINDERSLEY     PTSUNNY   46  36  66 SE18G25   29.88F
LLOYDMINSTER   CLOUDY    30  30 100 E15       29.93F WCI  19
PRINCE ALBERT  PTSUNNY   34  23  64 E10       30.10F
REGINA         PTSUNNY   41  32  70 SE21      30.05F
YORKTON        PTSUNNY   32  25  74 SE13G18   30.15F WC



USA.gov is the U.S. government's official web portal to all federal, state and local government web resources and services.